Location: Brodie Road Observatory
(45.4241°N, 74.5431°W)
Time: 11:59:58
(UTC-04:00)

Daily predictions for brighter satellites

Satellite Brightness Start Highest point End
(mag) Time Altitude Azimuth Time Altitude Azimuth Time Altitude Azimuth
Cosmos 2184 Rocket 4.2 20:53:00 10° S 20:59:10 82° W 21:05:25 10° N
Cosmos 1174 3.7 20:57:21 10° NW 21:00:33 55° WSW 21:03:29 10° SSE
Cosmos 676 Rocket 4.1 20:55:34 10° NNW 21:00:49 90° ENE 21:06:03 10° SSE
YAOGAN 11 4.3 20:56:19 10° SSE 21:00:51 89° WSW 21:05:28 10° NNW
YAOGAN 6 4.2 20:59:39 10° ESE 21:02:14 19° ENE 21:04:49 10° NNE
Cosmos 1408 3.2 21:00:37 10° SSE 21:03:59 37° E 21:07:23 10° NNE
Cosmos 1954 Rocket 4.0 20:58:49 10° NNW 21:04:03 76° ENE 21:09:18 10° SSE
Okean 3 3.8 21:04:11 10° N 21:08:21 49° ENE 21:12:28 10° SSE
Cosmos 2056 Rocket 4.3 21:03:36 10° SW 21:08:38 55° WNW 21:13:41 10° NNE
COS B Rocket 3.5 21:06:05 10° N 21:09:59 48° E 21:13:28 10° SSE
Cosmos 1833 Rocket 3.7 21:09:24 10° N 21:14:28 33° NE 21:19:30 10° ESE
CZ-4 DEB 3.8 21:12:14 10° S 21:15:17 44° W 21:18:21 10° NNW
Cosmos 1023 Rocket 4.5 21:15:02 10° NNW 21:20:09 71° ENE 21:25:16 10° SSE
Cosmos 1844 Rocket 3.2 21:14:48 10° SW 21:20:25 66° WNW 21:26:04 10° NNE
Cosmos 1741 Rocket 4.3 21:15:27 10° NNW 21:20:35 53° ENE 21:25:30 11° SE
Cosmos 1825 2.2 21:17:08 10° S 21:20:53 63° E 21:24:42 10° NNE
Cosmos 1939 Rocket 2.8 21:17:13 10° SSE 21:21:07 88° WSW 21:25:06 10° NNW
Cosmos 2278 Rocket 2.2 21:16:55 10° SSW 21:22:32 68° ESE 21:28:12 10° NNE
SL-8 R/B 4.1 21:20:09 10° W 21:24:57 65° N 21:29:45 10° ENE
Cosmos 1844 4.0 21:22:57 10° SSW 21:28:44 76° WNW 21:34:34 10° NNE
Okean 2 Rocket 3.2 21:29:24 10° S 21:33:43 57° E 21:38:03 10° NNE
Envisat 3.2 21:33:11 10° S 21:38:15 73° WSW 21:43:22 10° NNW
Cosmos 2082 Rocket 2.4 21:34:42 10° NNW 21:40:22 60° ENE 21:44:56 16° SE
Cosmos 614 Rocket 4.0 21:35:40 10° NNW 21:40:46 71° ENE 21:45:01 15° SSE
PSLV R/B 3.1 21:38:39 16° SSE 21:40:51 63° ENE 21:43:48 10° N
Cosmos 1782 Rocket 3.6 21:37:04 10° S 21:41:32 85° E 21:46:03 10° N
Nadezhda 3 Rocket 4.4 21:36:51 10° NNW 21:43:09 67° W 21:49:27 10° S
CZ-4 SHROUD 3.2 21:41:47 17° SSE 21:44:02 66° ENE 21:47:07 10° N
Intercosmos 25 3.0 21:43:01 10° S 21:46:19 52° E 21:49:25 10° NNE
SL-08 RB Rocket 4.4 21:43:28 16° SE 21:46:42 39° ENE 21:51:03 10° N
Cosmos 2218 Rocket 4.3 21:42:23 10° SSE 21:48:32 51° E 21:54:41 10° NNE
Cosmos 2084 4.1 21:45:11 10° SW 21:48:56 51° NW 21:52:42 10° NNE
ERS-1 Rocket 4.2 21:45:33 10° SSW 21:50:14 39° W 21:54:58 10° NNW
Cosmos 1812 4.2 21:47:16 10° NNE 21:50:25 23° ENE 21:52:04 18° ESE
Cosmos 1420 Rocket 3.9 21:45:43 10° SSW 21:50:57 83° ESE 21:56:13 10° NNE
COSMOS 2487 4.0 21:47:43 10° NW 21:51:01 33° WSW 21:54:17 10° S
APEX 3.6 21:47:28 10° SSW 21:51:30 71° ESE 21:56:52 10° NNE
DNEPR-1 R/B 4.3 21:46:35 10° NW 21:51:56 58° WSW 21:55:32 16° SSE
Cosmos 1975 Rocket 3.4 21:49:46 10° NNW 21:54:03 64° W 21:58:21 10° S
Meteor 1-14 Rocket 4.3 21:49:39 10° S 21:55:11 60° E 22:00:41 10° NNE
Cosmos 1140 Rocket 3.9 21:50:15 10° NNW 21:55:19 58° WSW 22:00:06 11° S
USA 234 4.5 21:52:25 10° E 21:56:28 17° ESE 21:56:42 17° SE
Cosmos 1727 Rocket 4.2 21:53:40 10° N 21:59:42 53° ENE 22:04:02 19° SSE
Cosmos 2297 3.7 21:54:21 10° SSW 22:00:02 70° ESE 22:05:45 10° NNE
AVUM R/B 3.6 22:00:06 10° NNW 22:03:35 56° ENE 22:05:09 28° SE
Terra 2.9 22:01:13 19° ESE 22:03:44 30° ENE 22:07:54 10° N
NOAA 11 4.2 22:01:14 18° SSE 22:05:22 72° ENE 22:10:52 10° N
CZ-4B R/B 3.5 22:00:32 10° NNE 22:05:24 56° ESE 22:09:18 15° S
Cosmos 1536 Rocket 3.8 22:02:33 10° N 22:06:59 57° ENE 22:09:31 24° SSE
ISS -2.5 22:04:54 10° WSW 22:08:06 53° NNW 22:11:19 10° NE
MetOp-B 4.4 22:04:33 12° S 22:09:25 67° WSW 22:14:46 10° NNW
H-2A R/B 2.6 22:11:12 23° SE 22:14:17 47° ENE 22:19:20 10° N
BREEZE-M DEB (TANK) 2.8 22:13:01 10° WNW 22:14:58 36° N 22:18:09 10° ENE
SPOT 5 4.0 22:14:12 10° S 22:19:17 45° W 22:24:26 10° NNW
Lacrosse 5 rocket 3.2 22:21:57 14° ENE 22:21:57 14° ENE 22:22:41 10° ENE
SL-8 Rocket 4.1 22:15:25 10° SSW 22:21:41 79° W 22:27:57 10° N
IGS 5A 4.1 22:25:17 30° ESE 22:26:43 41° ENE 22:30:38 10° N
USA 245 3.9 22:25:48 23° SSW 22:27:49 52° W 22:32:08 10° NNW
Gbstr 26 Del rocket 3.2 22:24:15 10° WNW 22:29:31 78° NNE 22:31:42 30° ESE
Cosmos 2369 Rocket 3.7 22:29:38 17° E 22:29:38 17° E 22:33:07 10° ENE
SPOT 1/Viking Rocket 3.9 22:26:13 19° S 22:29:56 62° WSW 22:35:08 10° NNW
ARGOS 3.3 22:27:48 21° S 22:31:27 69° WSW 22:36:49 10° NNW
Lacrosse 5 2.5 22:31:52 31° SE 22:32:04 31° SE 22:36:32 10° ENE
H-2A R/B 4.4 22:31:18 10° SW 22:34:20 19° W 22:37:20 10° NW
YAOGAN 6 4.2 22:33:23 15° SSW 22:35:40 28° W 22:38:46 10° NW
Cosmos 1025 Rocket 4.3 22:33:56 10° NNE 22:37:38 26° ENE 22:38:34 24° E
CZ-4C R/B 3.3 22:38:45 40° SSE 22:40:08 87° ENE 22:44:21 10° NNW
Cosmos 2151 Rocket 4.0 22:36:41 16° SSW 22:40:15 64° W 22:44:46 10° N
USA 229 DEB 4.2 22:39:19 10° NW 22:46:14 56° WSW 22:50:15 26° S
USA 229 4.1 22:39:25 10° NW 22:46:20 56° WSW 22:50:21 26° S
Cosmos 1400 Rocket 4.0 22:49:30 28° E 22:49:30 28° E 22:52:55 10° NNE
ASTEX 1 3.6 22:45:19 10° NNE 22:50:10 51° E 22:51:33 39° SE
Cosmos 1300 Rocket 3.5 22:49:12 42° SSE 22:50:36 71° E 22:55:03 10° NNE
Cosmos 1536 4.2 22:53:09 25° E 22:53:09 25° E 22:56:04 10° NNE
Meteor 1-20 Rocket 4.1 22:50:15 23° SSW 22:53:49 86° W 22:59:21 10° N
Timation 1 Rocket 4.3 22:49:21 10° SSW 22:55:23 89° WNW 23:01:26 10° NNE
Okean 1 Rocket 3.0 22:56:16 47° SSE 22:57:29 72° E 23:01:56 10° NNE
Cosmos 1943 Rocket 4.3 22:59:12 11° E 22:59:12 11° E 23:00:08 10° ENE
Cosmos 1833 Rocket 3.5 22:53:13 10° NW 22:58:30 43° WSW 23:01:16 25° SSW
SAR-Lupe-2 3.5 23:03:13 68° E 23:03:21 69° ENE 23:06:55 10° N
NOSS 3-1 (A) 4.1 22:57:11 10° NW 23:04:39 73° NE 23:09:02 30° SE
SL-8 R/B 4.0 23:03:03 10° WNW 23:07:51 67° N 23:10:22 28° E
Cosmos 1331 Rocket 4.1 23:05:38 22° SSW 23:08:58 76° WNW 23:14:09 10° NNE
Cosmos 1503 Rocket 4.3 23:04:33 10° NNW 23:09:44 57° ENE 23:11:14 42° ESE
Okean 1-7 Rocket 3.6 23:07:38 10° NNW 23:12:08 74° W 23:13:10 51° SSW
Okean 1 4.1 23:09:42 10° NNW 23:13:37 46° W 23:14:37 37° SW
DMSP B5D2-2 4.1 23:13:03 10° NNE 23:18:18 79° WNW 23:20:37 34° SSW
CZ-4B R/B 4.1 23:23:22 10° NE 23:23:22 10° NE 23:23:30 10° NE
Cosmos 2082 Rocket 4.0 23:19:42 10° NW 23:23:57 22° W 23:26:48 15° SW
ATLAS 2AS CENTAUR R/B 3.8 23:17:44 10° NNW 23:25:36 48° NE 23:30:49 21° ESE
Cosmos 1812 4.4 23:23:00 10° NNW 23:26:17 26° W 23:27:16 23° WSW
Cosmos 1602 3.6 23:27:33 87° NW 23:27:33 87° NW 23:31:28 10° N
Meteor 2-15 4.5 23:21:46 10° N 23:27:53 68° E 23:29:39 46° SE
NOSS 3-1 (C) 4.1 23:26:15 10° NW 23:33:44 71° WSW 23:37:00 40° SSE
Meteor 2-4 Rocket 3.6 23:30:29 10° N 23:35:58 80° E 23:37:12 55° SSE
Genesis I 3.3 23:37:08 69° W 23:37:24 73° NW 23:41:26 10° NNE
USA 234 3.1 23:33:47 10° NE 23:40:18 65° SE 23:43:56 28° SSW
Cosmos 2263 4.5 23:40:30 46° ESE 23:40:39 46° ESE 23:46:02 10° NE
Terra 3.0 23:40:06 28° SW 23:41:25 33° W 23:45:43 10° NNW
BREEZE-M TANK 2.7 23:35:15 10° WNW 23:42:07 63° SW 23:42:07 63° SW
Cosmos 1354 Rocket 4.0 23:38:53 10° NNW 23:44:10 73° WSW 23:45:03 59° SSW
ISS -1.1 23:42:10 10° WNW 23:45:00 26° N 23:46:43 17° NE
Cosmos 2084 Rocket 3.5 23:48:16 10° NW 23:51:39 66° NW 23:51:39 66° NW
H-2A R/B 3.7 23:51:51 20° SW 23:53:52 25° W 23:58:14 10° NW
Cosmos 1315 Rocket 3.0 23:55:13 65° N 23:55:13 65° N 23:58:37 10° N
